Flag for U.S.A. Weather past 2 weeks in Baltimore, Maryland, U.S.A.

Now
68 °F

Partly sunny.


Feels Like: 68 °F
Forecast: 59 / 80 °F
Wind: 8 mph from Northeast

Location: Baltimore-Washington International Airport

Current Time: Aug 29, 2014 at 10:10:10 AM

Latest Report: Aug 29, 2014 at 8:54 AM


Visibility: 10 mi

Pressure: 30.19 "Hg

Humidity: 55%

Dew point: 51 °F

Location of BaltimoreLocation

Historic Weather in Baltimore — Graph

°F

Baltimore temperature yesterday

Maximum temperature yesterday: 83 °F (at 1:54 PM)
Minimum temperature yesterday: 64 °F (at 11:54 PM)
Average temperature yesterday: 76 °F

Past Weeks' High & Low Weather Summary

 TemperatureHumidityPressure
High88 °F (Aug 27, 2:54 PM)97% (Aug 21, 5:54 AM)30.19 "Hg (Aug 21, 5:54 AM)
Low55 °F (Aug 15, 5:54 AM)35% (Aug 15, 4:54 PM)29.81 "Hg (Aug 19, 3:54 AM)
Average73 °F69%29.99 "Hg
* Reported Aug 14 8:54 AM — Aug 29 8:54 AM, Baltimore, Weather by CustomWeather, © 2014

Note: Actual official high and low records may vary slightly from our data, if they occured in-between our weather recording intervals... More about our weather records

Advertising

Baltimore weather history for previous 24 hours

 ConditionsComfort  
Time TempWeatherWind HumidityBarometerVisibility
8:54 AM
Aug 29
68 °FPartly sunny.8 mph55%30.19 "Hg10 mi
7:54 AM62 °FScattered clouds.No wind67%30.19 "Hg10 mi
6:54 AM58 °FPassing clouds.5 mph78%30.16 "Hg10 mi
5:54 AM59 °FPassing clouds.6 mph72%30.14 "Hg10 mi
4:54 AM60 °FPassing clouds.5 mph69%30.13 "Hg10 mi
3:54 AM60 °FPassing clouds.No wind67%30.12 "Hg10 mi
2:54 AM64 °FPassing clouds.5 mph58%30.11 "Hg10 mi
1:54 AM66 °FPassing clouds.8 mph61%30.10 "Hg10 mi
12:54 AM66 °FPassing clouds.3 mph63%30.09 "Hg10 mi
11:54 PM
Aug 28
64 °FClear.No wind73%30.08 "Hg10 mi
10:54 PM65 °FPassing clouds.3 mph68%30.07 "Hg10 mi
9:54 PM70 °FClear.No wind55%30.06 "Hg10 mi
8:54 PM72 °FClear.No wind55%30.03 "Hg10 mi
7:54 PM74 °FScattered clouds.5 mph46%30.00 "Hg10 mi
6:54 PM79 °FScattered clouds.7 mph38%29.98 "Hg10 mi
5:54 PM80 °FScattered clouds.8 mph41%29.97 "Hg10 mi
4:54 PM83 °FScattered clouds.12 mph40%29.96 "Hg10 mi
3:54 PM83 °FScattered clouds.13 mph37%29.95 "Hg10 mi
2:54 PM83 °FScattered clouds.14 mph40%29.94 "Hg10 mi
1:54 PM83 °FScattered clouds.14 mph46%29.95 "Hg10 mi
12:54 PM81 °FScattered clouds.13 mph49%29.96 "Hg10 mi
11:54 AM81 °FScattered clouds.12 mph49%29.97 "Hg10 mi
10:54 AM79 °FScattered clouds.7 mph56%29.98 "Hg10 mi
Weather by CustomWeather, © 2014

See weather overviewHow to use our weather pages